Regional Weather Roundup
Issued by NWS

Home | Current Version | Previous Version | Text Only | Print | Product List | Glossary Off
Versions: 1 2 3 4 5 6 7 8 9 10 11 12 13 14 15 16 17 18 19 20 21 22 23 24 25 26 27 28 29 30 31 32 33 34 35 36 37 38 39 40 41 42 43 44 45 46 47 48 49 50

000
ASUS45 KABQ 200910
RWRNM
WEATHER ROUNDUP FOR NEW MEXICO
NATIONAL WEATHER SERVICE ALBUQUERQUE NM
300 AM MDT WED AUG 20 2014

NOTE: "FAIR" MEANS FEW OR NO CLOUDS BELOW 12,000 FEET AGL WITH NO
       SIGNIFICANT WEATHER OR OBSTRUCTIONS TO VISION.

      THIS PRODUCT IS RELEASED AS TWO VERSIONS.  ONE VERSION NEAR
      THE TOP OF THE HOUR CONTAINING PRELIMINARY DATA FROM ALBUQUERQUE
      AND OTHER STATIONS.  A FINAL VERSION WITH ADDITIONAL DATA IS
      ISSUED ABOUT 10 MINUTES AFTER THE HOUR.

NMZ501-503-504-510>518-201000-
NORTHWEST PLATEAU/NORTHCENTRAL MOUNTAINS

CITY           SKY/WX    TMP DP  RH WIND       PRES   REMARKS
FARMINGTON     PTCLDY    63  59  87 W3        30.04R
LOS ALAMOS     CLOUDY    64  46  51 CALM      30.15R
SANTA FE       CLOUDY    64  51  62 W5        30.07F
TAOS           MOCLDY    57  43  58 SE7       30.14S
ANGEL FIRE     FAIR      49  45  85 CALM      30.22S

$$
NMZ402-403-502-505>509-201000-
WESTCENTRAL MOUNTAINS/SOUTHWEST MOUNTAINS

CITY           SKY/WX    TMP DP  RH WIND       PRES   REMARKS
GALLUP         CLOUDY    59  53  80 SW7       30.14R
SILVER CITY    MOCLDY    63  55  77 MISG      30.08F

$$
NMZ407-409-411-412-201000-
SOUTHERN DESERTS

CITY           SKY/WX    TMP DP  RH WIND       PRES   REMARKS
LORDSBURG      FAIR      61  59  94 W5        30.04S
DEMING         PTCLDY    65  58  78 W13       30.01
LAS CRUCES     CLEAR     65  58  77 W14       30.00R
HOLLOMAN AFB   PTCLDY    72  59  63 SE10      29.94R
ALAMOGORDO     PTCLDY    70  57  64 S12       29.96R
T OR C         MOCLDY    72  55  55 NW7       29.98F

$$
NMZ519>523-201000-
CENTRAL VALLEYS/CENTRAL HIGHLANDS

CITY           SKY/WX    TMP DP  RH WIND       PRES   REMARKS
ALBUQUERQUE    CLOUDY    69  51  52 SE3       30.04S
DOUBLE EAGLE   CLOUDY    65  53  65 CALM      30.07S
MORIARTY ARPT  PTSUNNY   61  51  67 N3        30.08S
CLINES CORNERS MOCLDY    58  48  69 W12       30.10F
BELEN          FAIR      66  54  63 W6        30.03R
SOCORRO        FAIR      70  54  56 CALM      30.01R

$$
NMZ524>526-539-540-201000-
SOUTHCENTRAL MOUNTAINS

CITY           SKY/WX    TMP DP  RH WIND       PRES   REMARKS
RUIDOSO        PTCLDY    61  50  67 W6        30.13S

$$
NMZ527>531-201000-
NORTHEAST HIGHLANDS/NORTHEAST PLAINS

CITY           SKY/WX    TMP DP  RH WIND       PRES   REMARKS
LAS VEGAS      PTCLDY    57  45  64 N6        30.08S
RATON          MOCLDY    61  48  62 CALM      30.03S
CLAYTON        PTCLDY    67  57  70 S12       29.95F

$$
NMZ532>537-201000-
EASTCENTRAL PLAINS

CITY           SKY/WX    TMP DP  RH WIND       PRES   REMARKS
TUCUMCARI      PTCLDY    76  57  51 S15       29.89S
CANNON AFB     CLEAR     71  62  73 S8        29.95S
CLOVIS AIRPORT   N/A     68  59  73 S9        29.97F

$$
NMZ028-029-538-201000-
SOUTHEAST PLAINS

CITY           SKY/WX    TMP DP  RH WIND       PRES   REMARKS
ROSWELL        CLEAR     71  57  61 SE7       29.88R
ARTESIA        CLEAR     73  57  56 S6        29.89S
CARLSBAD       PTCLDY    75  60  59 NE5       29.87S
HOBBS          CLEAR     73  63  68 S12       29.93F


$$



USA.gov is the U.S. government's official web portal to all federal, state and local government web resources and services.